CW5761 Weather Reports


time (UTC)temp
F
wind
direction
speed
knots
gust
knots
rain 1hr
in
rain 24hr
in
rain mn
in
humidity
%
barometer
mb
20260504204008 73 90 1.7 0.0 0.00 0.00 0.00 41 1009.5
20260504203004 73 83 0.0 0.0 0.00 0.00 0.00 41 1009.5
20260504202914 73 82 0.0 0.0 0.00 0.00 0.00 43 1009.5
20260504185004 73 326 0.0 0.0 0.00 0.00 0.00 40 1010.6
20260504184005 72 344 0.0 0.0 0.00 0.00 0.00 38 1010.6
20260504183008 73 130 2.6 0.0 0.00 0.00 0.00 39 1010.6
20260504182008 73 99 0.0 0.0 0.00 0.00 0.00 38 1010.8
20260504181004 72 100 0.0 0.0 0.00 0.00 0.00 39 1011.2
20260504175005 72 163 0.0 0.0 0.00 0.00 0.00 40 1011.3
20260504174008 72 63 0.0 0.0 0.00 0.00 0.00 39 1011.6
20260504173003 71 119 1.7 0.0 0.00 0.00 0.00 42 1011.6
20260504172228 71 332 0.0 0.0 0.00 0.00 0.00 42 1011.7
20260504141004 64 125 0.0 0.0 0.00 0.00 0.00 58 1013.4
20260504082004 38 347 0.0 0.0 0.00 0.00 0.00 87 1014.6
20260504081008 38 347 0.0 0.0 0.00 0.00 0.00 87 1014.6
20260504050223 42 347 0.0 0.0 0.00 0.00 0.00 77 1014.4
20260504044004 43 347 0.0 0.0 0.00 0.00 0.00 77 1014.3
20260504043004 43 347 0.0 0.0 0.00 0.00 0.00 78 1014.3
20260504041133 43 347 0.0 0.0 0.00 0.00 0.00 78 1013.9
20260504034008 43 347 0.0 0.0 0.00 0.00 0.00 76 1013.8
20260504033004 43 347 0.0 0.0 0.00 0.00 0.00 76 1013.8
20260504032008 44 347 0.0 0.0 0.00 0.00 0.00 75 1013.7
20260504030005 44 347 0.0 0.0 0.00 0.00 0.00 74 1013.6
20260504025459 44 347 0.0 0.0 0.00 0.00 0.00 73 1013.6
20260504024919 45 347 0.0 0.0 0.00 0.00 0.00 73 1013.6
20260504013004 49 347 0.0 0.0 0.00 0.00 0.00 63 1013.4
20260504012003 50 347 0.0 0.0 0.00 0.00 0.00 60 1013.2
20260504011003 51 347 0.0 0.0 0.00 0.00 0.00 57 1012.9
20260504010313 52 347 0.0 0.0 0.00 0.00 0.00 56 1012.9
20260504004004 53 347 0.0 0.0 0.00 0.00 0.00 52 1012.6
20260504003003 54 347 0.0 0.0 0.00 0.00 0.00 49 1012.6
20260504002628 54 347 0.0 0.0 0.00 0.00 0.00 49 1012.3
20260503234003 58 347 0.0 0.0 0.00 0.00 0.00 42 1011.9
20260503232004 59 340 0.0 0.0 0.00 0.00 0.00 41 1011.9
20260503231008 60 338 0.0 0.0 0.00 0.00 0.00 37 1011.7
20260503230059 60 329 0.0 0.0 0.00 0.00 0.00 37 1011.7
20260503224004 60 344 0.0 0.0 0.00 0.00 0.00 37 1011.7
20260503223009 61 343 0.0 0.0 0.00 0.00 0.00 34 1011.7
20260503221008 61 9 0.0 0.0 0.00 0.00 0.00 33 1011.7
20260503220005 61 327 0.0 0.0 0.00 0.00 0.00 35 1011.7
20260503215348 61 344 3.5 0.0 0.00 0.00 0.00 34 1011.7
20260503214008 61 337 5.2 0.0 0.00 0.00 0.00 35 1011.7
20260503213003 61 342 0.0 0.0 0.00 0.00 0.00 34 1011.7
20260503212008 61 336 4.3 0.0 0.00 0.00 0.00 34 1011.6
20260503211004 60 331 1.7 0.0 0.00 0.00 0.00 33 1011.7
20260503210003 60 351 0.0 0.0 0.00 0.00 0.00 37 1011.7
20260503205748 60 350 4.3 0.0 0.00 0.00 0.00 36 1011.8